User: anonymous   Login
Location: Ceske Budejovice
(48.9830°N, 14.4670°E)
Time: 03:19:26
(UTC+02:00)
Language:

STARS - Orbit

View from above orbital plane
View from above orbital plane
View from above satellite
View from above satellite

Ground track
Ground track

The orbit data is extracted from the following two-line orbital elements,

1 33498U 09002G   19229.15742592  .00000097  00000-0  20798-4 0  9992
2 33498  98.3020  80.2429 0010642 345.1049  14.9846 14.79010204568790
Epoch (UTC): 17 August 2019 03:46:41
Eccentricity: 0.0010642
inclination: 98.3020°
perigee height: 625 km
apogee height: 640 km
right ascension of ascending node: 80.2429°
argument of perigee: 345.1049°
revolutions per day: 14.79010204
mean anomaly at epoch: 14.9846°
orbit number at epoch: 56879

The dashed part of the orbit path shows where the satellite is in the earth's shadow,  

DLR